Regional Weather Roundup
Issued by NWS Cleveland, OH

Home | Current Version | Previous Version | Text Only | Print | Product List | Glossary Off
Versions: 1 2 3 4 5 6 7 8 9 10 11 12 13 14 15 16 17 18 19 20 21 22 23 24 25 26 27 28 29 30 31 32 33 34 35 36 37 38 39 40 41 42 43 44 45 46 47 48 49 50

000
ASUS41 KCLE 011010
RWRCLE
OHIO REGIONAL WEATHER ROUNDUP
NATIONAL WEATHER SERVICE CLEVELAND, OH
600 AM EDT FRI AUG 01 2014

NOTE: "FAIR" INDICATES FEW OR NO CLOUDS BELOW 12,000 FEET WITH NO
SIGNIFICANT WEATHER AND/OR OBSTRUCTIONS TO VISIBILITY.

OHZ001>008-015>018-024>027-034-035-043-044-011100-
   NORTHWEST OHIO

CITY           SKY/WX    TMP DP  RH WIND       PRES   REMARKS
DEFIANCE       PTCLDY    62  58  86 CALM      30.09S FOG
FINDLAY        CLEAR     60  56  86 S3        30.09R
TOLEDO EXPRESS PTCLDY    59  58  96 CALM      30.08R FOG
TOLEDO EXEC    CLEAR     63  59  87 CALM      30.09R
LIMA           CLEAR     61  56  83 S3        30.10R
$$

OHZ009>014-019>023-028>033-038-089-011100-
   NORTHEAST OHIO

CITY           SKY/WX    TMP DP  RH WIND       PRES   REMARKS
CLE-HOPKINS    PTCLDY    63  57  81 S5        30.11S
CLE-LAKEFRONT  MOCLDY    67  58  72 SE7       30.09R
CUY CO. ARPT   NOT AVBL
LORAIN-ELYRIA  PTCLDY    63  57  81 S3        30.10S
ASHTABULA      PTCLDY    59  56  89 CALM      30.12R
AKRON-CANTON   CLEAR     62  57  83 S3        30.12R
WOOSTER        FOG       54  51  90 CALM      30.13R VSB 1
MANSFIELD      CLEAR     60  57  89 CALM      30.12S
YOUNGSTOWN     PTCLDY    61  57  87 CALM      30.13R
$$

OHZ042-051>053-060>062-070>072-077>081-011100-
  SOUTHWEST OHIO

CITY           SKY/WX    TMP DP  RH WIND       PRES   REMARKS
CINC-COVINGTON CLEAR     67  61  81 N3        30.10R
CINC-LUNKEN    PTCLDY    59  58  96 CALM      30.10S FOG
HAMILTON       CLEAR     59  58  96 CALM      30.11R FOG
DAYTON         MOCLDY    65  59  81 CALM      30.11R
WRIGHT-PAT AFB PTCLDY    61  59  94 CALM      30.10R
DAYTON GENERAL CLEAR     61  59  93 CALM      30.10R
WILMINGTON     PTCLDY    60  59  96 CALM      30.10R FOG
$$

OHZ036-037-039>041-045>050-054>059-063>069-073>076-082>088-011100-
  CENTRAL AND SOUTHEAST OHIO

CITY           SKY/WX    TMP DP  RH WIND       PRES   REMARKS
COLUMBUS       CLEAR     65  60  84 CALM      30.10R
OSU AIRPORT    PTCLDY    61  59  93 CALM      30.10R
BOLTON FIELD   FOG       58  58 100 CALM      30.11R VSB 3/4
RICKENBACK AFB CLEAR     62  57  86 CALM      30.09S FOG
NEWARK         FOG       57  56  96 CALM      30.11R VSB 1/2
MARION         CLEAR     58  55  90 CALM      30.11R FOG
LANCASTER      CLEAR     60  58  92 CALM      30.11R FOG
ZANESVILLE     PTCLDY    60  57  89 CALM      30.11S
NEW PHILLY     CLEAR     57  57 100 SE3       30.13S FOG
$$



USA.gov is the U.S. government's official web portal to all federal, state and local government web resources and services.